Simultaneous Nadir Overpasses (SNOs) Predictions

Prediction of SNOs between AURA and NPP Satellite Orbit:

Table of predicted SNOs for the next 14.0 days since TLE Epoch: 7/31/2015
Index Date (AURA) Time (AURA) Lat,Lon (AURA) SZA (AURA ) Date (NPP) Time (NPP) Lat,Lon (NPP) SZA (NPP ) Distance(km) Time Diff (sec)
1 08/02/2015 08:57:19 -78.69, 117.51 103.67 08/02/2015 08:56:50 -78.70, 117.64 103.67 2.98 29
2 08/02/2015 09:46:38 78.97, -73.28 75.96 08/02/2015 09:47:27 78.96, -73.35 75.94 1.54 49
3 08/05/2015 01:13:46 -78.80,-126.02 103.13 08/05/2015 01:13:40 -78.80,-125.93 103.15 2.14 6
4 08/05/2015 02:03:05 79.07, 43.20 76.50 08/05/2015 02:04:17 79.06, 43.12 76.47 1.93 72
5 08/07/2015 16:40:54 78.50,-179.40 77.98 08/07/2015 16:39:54 78.50,-179.34 78.01 1.48 60
6 08/07/2015 17:30:11 -78.93, -9.38 102.61 08/07/2015 17:30:28 -78.94, -9.25 102.65 2.88 17
7 08/10/2015 08:57:23 78.49, -63.54 78.72 08/10/2015 08:56:47 78.49, -63.63 78.76 2.22 36
8 08/10/2015 09:46:40 -78.93, 106.50 101.87 08/10/2015 09:47:21 -78.93, 106.45 101.90 1.09 41
9 08/13/2015 01:13:45 78.77, 53.83 79.10 08/13/2015 01:13:32 78.78, 53.92 79.10 1.90 13




NCC Satellite Simultaneous Nadir Overpasses (SNOs) Prediction Service
